�������l�o���
Date,Time,MP-1(��Sv/h),MP-2(��Sv/h),MP-3(��Sv/h),MP-4(��Sv/h),MP-5(��Sv/h),MP-6(��Sv/h),MP-7(��Sv/h),MP-8(��Sv/h),����,����(m/s),���J
2024/06/04,00:00,0.486,0.747,0.474,0.913,0.671,0.309,0.539,0.504,�k�k��,7.7,��
2024/06/04,00:10,0.486,0.746,0.475,0.914,0.668,0.308,0.539,0.502,�k�k��,7.2,��
2024/06/04,00:20,0.486,0.746,0.474,0.912,0.667,0.310,0.540,0.504,�k�k��,7.1,��
2024/06/04,00:30,0.486,0.747,0.475,0.914,0.668,0.310,0.540,0.504,�k�k��,7.2,��
2024/06/04,00:40,0.488,0.746,0.475,0.913,0.669,0.310,0.540,0.505,�k�k��,8.0,��
2024/06/04,00:50,0.488,0.747,0.475,0.912,0.667,0.310,0.539,0.504,�k�k��,6.9,��
2024/06/04,01:00,0.486,0.746,0.474,0.913,0.668,0.311,0.539,0.504,�k�k��,8.0,��
2024/06/04,01:10,0.486,0.745,0.474,0.914,0.666,0.308,0.539,0.505,�k�k��,8.2,��
2024/06/04,01:20,0.487,0.746,0.475,0.914,0.668,0.309,0.539,0.504,�k�k��,7.6,��
2024/06/04,01:30,0.486,0.746,0.473,0.913,0.667,0.308,0.538,0.505,�k�k��,6.5,��
2024/06/04,01:40,0.486,0.747,0.476,0.914,0.668,0.310,0.538,0.504,�k�k��,7.7,��
2024/06/04,01:50,0.486,0.745,0.473,0.913,0.668,0.310,0.539,0.504,�k�k��,8.0,��
2024/06/04,02:00,0.486,0.746,0.473,0.914,0.666,0.311,0.539,0.503,�k�k��,8.3,��
2024/06/04,02:10,0.487,0.746,0.474,0.915,0.670,0.309,0.539,0.502,�k�k��,7.1,��
2024/06/04,02:20,0.488,0.745,0.475,0.913,0.667,0.310,0.539,0.504,�k�k��,7.9,��
2024/06/04,02:30,0.485,0.748,0.475,0.917,0.668,0.309,0.540,0.504,�k�k��,8.2,��
2024/06/04,02:40,0.484,0.748,0.473,0.914,0.669,0.308,0.540,0.503,�k�k��,7.6,��
2024/06/04,02:50,0.486,0.744,0.474,0.914,0.669,0.309,0.539,0.504,�k�k��,8.4,��
2024/06/04,03:00,0.488,0.747,0.475,0.914,0.670,0.309,0.539,0.504,�k�k��,7.3,��
2024/06/04,03:10,0.487,0.748,0.475,0.915,0.668,0.310,0.539,0.504,�k�k��,8.3,��
2024/06/04,03:20,0.487,0.747,0.474,0.914,0.669,0.310,0.538,0.504,�k�k��,7.7,��
2024/06/04,03:30,0.487,0.749,0.475,0.913,0.667,0.310,0.539,0.503,�k�k��,8.6,��
2024/06/04,03:40,0.487,0.747,0.475,0.915,0.666,0.309,0.539,0.504,�k�k��,7.8,��
2024/06/04,03:50,0.487,0.747,0.473,0.916,0.668,0.311,0.540,0.503,�k�k��,8.8,��
2024/06/04,04:00,0.486,0.748,0.475,0.916,0.667,0.310,0.537,0.503,�k�k��,8.7,��
2024/06/04,04:10,0.487,0.746,0.475,0.913,0.668,0.310,0.539,0.505,�k�k��,8.8,��
2024/06/04,04:20,0.487,0.745,0.473,0.914,0.669,0.309,0.536,0.504,�k�k��,8.0,��
2024/06/04,04:30,0.487,0.747,0.475,0.914,0.668,0.308,0.538,0.505,�k�k��,9.5,��
2024/06/04,04:40,0.486,0.747,0.475,0.914,0.669,0.310,0.538,0.505,�k�k��,9.1,��
2024/06/04,04:50,0.487,0.748,0.473,0.915,0.670,0.311,0.538,0.503,�k�k��,10.3,��
2024/06/04,05:00,0.487,0.747,0.475,0.914,0.670,0.310,0.538,0.503,�k�k��,9.4,��
2024/06/04,05:10,0.489,0.749,0.474,0.915,0.668,0.310,0.538,0.504,�k�k��,7.7,��
2024/06/04,05:20,0.488,0.747,0.475,0.914,0.669,0.309,0.538,0.504,�k�k��,8.7,�L
2024/06/04,05:30,0.487,0.745,0.475,0.916,0.667,0.309,0.538,0.504,�k�k��,8.6,�L
2024/06/04,05:40,0.487,0.747,0.475,0.915,0.669,0.309,0.539,0.505,�k�k��,7.5,��
2024/06/04,05:50,0.487,0.747,0.474,0.916,0.667,0.308,0.539,0.504,�k�k��,7.8,��
2024/06/04,06:00,0.487,0.746,0.475,0.915,0.667,0.308,0.537,0.504,�k�k��,7.6,��
2024/06/04,06:10,0.488,0.748,0.476,0.914,0.668,0.308,0.538,0.503,�k�k��,8.3,�L
2024/06/04,06:20,0.488,0.747,0.473,0.915,0.670,0.309,0.538,0.502,�k�k��,9.2,��
2024/06/04,06:30,0.486,0.747,0.474,0.914,0.666,0.309,0.539,0.503,�k�k��,6.9,�L
2024/06/04,06:40,0.488,0.745,0.474,0.916,0.669,0.309,0.539,0.502,�k�k��,7.7,�L
2024/06/04,06:50,0.485,0.747,0.473,0.916,0.666,0.309,0.537,0.502,�k�k��,7.5,�L
2024/06/04,07:00,0.485,0.744,0.474,0.918,0.668,0.308,0.538,0.503,�k�k��,8.9,��
2024/06/04,07:10,0.485,0.745,0.473,0.918,0.667,0.309,0.538,0.503,�k�k��,7.4,�L
2024/06/04,07:20,0.486,0.745,0.475,0.916,0.669,0.308,0.538,0.502,�k�k��,7.9,�L
2024/06/04,07:30,0.485,0.745,0.473,0.917,0.668,0.309,0.538,0.502,�k�k��,7.9,�L
2024/06/04,07:40,0.485,0.743,0.473,0.915,0.668,0.307,0.539,0.502,�k�k��,8.8,��
2024/06/04,07:50,0.486,0.745,0.474,0.917,0.667,0.309,0.538,0.502,�k�k��,10.0,�L
2024/06/04,08:00,0.486,0.745,0.473,0.915,0.668,0.308,0.538,0.502,�k�k��,8.2,�L
2024/06/04,08:10,0.485,0.745,0.472,0.917,0.668,0.309,0.539,0.502,�k�k��,9.2,�L
2024/06/04,08:20,0.485,0.744,0.474,0.917,0.666,0.308,0.539,0.501,�k,8.1,�L
2024/06/04,08:30,0.485,0.743,0.472,0.917,0.667,0.308,0.538,0.503,�k�k��,8.0,��
2024/06/04,08:40,0.486,0.747,0.474,0.917,0.669,0.309,0.538,0.502,�k�k��,8.6,��
2024/06/04,08:50,0.487,0.747,0.474,0.915,0.668,0.309,0.538,0.502,�k,7.6,�L
2024/06/04,09:00,0.486,0.746,0.474,0.916,0.670,0.307,0.538,0.503,�k,8.5,�L
2024/06/04,09:10,0.487,0.745,0.475,0.916,0.667,0.307,0.538,0.502,�k,8.5,�L
2024/06/04,09:20,0.486,0.745,0.473,0.917,0.668,0.308,0.539,0.502,�k,8.4,�L
2024/06/04,09:30,0.485,0.746,0.473,0.918,0.668,0.307,0.540,0.501,�k�k��,8.5,�L
2024/06/04,09:40,0.485,0.747,0.474,0.919,0.667,0.307,0.538,0.501,�k�k��,8.8,�L
2024/06/04,09:50,0.483,0.745,0.473,0.919,0.667,0.308,0.539,0.502,�k,9.8,�L
2024/06/04,10:00,0.477,0.742,0.471,0.917,0.668,0.308,0.540,0.500,�k,7.2,�L
2024/06/04,10:10,0.484,0.745,0.473,0.918,0.667,0.309,0.539,0.502,�k�k��,8.3,�L
2024/06/04,10:20,0.486,0.744,0.473,0.917,0.668,0.308,0.539,0.500,�k,6.9,�L
2024/06/04,10:30,0.485,0.744,0.473,0.917,0.670,0.309,0.538,0.502,�k,8.0,�L
2024/06/04,10:40,0.485,0.744,0.472,0.917,0.668,0.307,0.540,0.501,�k,7.5,�L
2024/06/04,10:50,0.483,0.745,0.473,0.916,0.669,0.309,0.540,0.501,�k�k��,8.1,��
2024/06/04,11:00,0.486,0.743,0.472,0.919,0.669,0.308,0.537,0.502,�k,8.1,�L
2024/06/04,11:10,0.486,0.745,0.473,0.918,0.667,0.308,0.538,0.501,�k�k��,6.8,��
2024/06/04,11:20,0.486,0.745,0.472,0.917,0.669,0.309,0.539,0.503,�k,7.4,��
2024/06/04,11:30,0.486,0.745,0.474,0.918,0.668,0.308,0.541,0.502,�k�k��,9.5,��
2024/06/04,11:40,0.485,0.745,0.473,0.917,0.669,0.308,0.540,0.502,�k,11.3,��
2024/06/04,11:50,0.485,0.746,0.473,0.919,0.668,0.309,0.539,0.499,�k,9.5,��
2024/06/04,12:00,0.486,0.748,0.473,0.919,0.669,0.309,0.539,0.502,�k,11.3,��
2024/06/04,12:10,0.486,0.746,0.476,0.921,0.672,0.308,0.538,0.502,�k,11.0,��
2024/06/04,12:20,0.487,0.748,0.473,0.919,0.670,0.310,0.539,0.502,�k,10.7,��
2024/06/04,12:30,0.486,0.746,0.474,0.917,0.671,0.309,0.540,0.503,�k,8.1,��
2024/06/04,12:40,0.487,0.749,0.473,0.916,0.670,0.309,0.539,0.503,�k,10.0,��
2024/06/04,12:50,0.488,0.746,0.474,0.918,0.671,0.309,0.538,0.502,�k,10.5,��
2024/06/04,13:00,0.487,0.749,0.474,0.919,0.672,0.309,0.540,0.503,�k,8.1,��
2024/06/04,13:10,0.486,0.748,0.473,0.915,0.670,0.309,0.540,0.503,�k,9.4,��
2024/06/04,13:20,0.488,0.748,0.476,0.918,0.670,0.311,0.541,0.504,�k,10.3,��
2024/06/04,13:30,0.488,0.749,0.474,0.918,0.672,0.310,0.538,0.504,�k,9.0,��
2024/06/04,13:40,0.488,0.751,0.474,0.917,0.671,0.308,0.539,0.502,�k,11.1,��
2024/06/04,13:50,0.488,0.749,0.475,0.919,0.671,0.310,0.539,0.504,�k�k��,9.2,��
2024/06/04,14:00,0.490,0.750,0.476,0.917,0.672,0.309,0.539,0.503,�k,9.6,��
2024/06/04,14:10,0.487,0.748,0.474,0.919,0.671,0.310,0.541,0.502,�k,10.5,��
2024/06/04,14:20,0.488,0.748,0.475,0.919,0.674,0.310,0.539,0.502,�k�k��,9.1,��
2024/06/04,14:30,0.488,0.750,0.474,0.919,0.674,0.308,0.541,0.503,�k�k��,9.3,��
2024/06/04,14:40,0.486,0.749,0.476,0.920,0.674,0.309,0.539,0.503,�k,7.1,��
2024/06/04,14:50,0.490,0.749,0.477,0.920,0.673,0.310,0.541,0.504,�k,7.6,��
2024/06/04,15:00,0.489,0.749,0.475,0.919,0.671,0.309,0.541,0.503,�k�k��,9.0,��
2024/06/04,15:10,0.490,0.751,0.476,0.921,0.674,0.309,0.540,0.503,�k,8.5,��
2024/06/04,15:20,0.488,0.751,0.474,0.921,0.675,0.309,0.541,0.503,�k,8.7,��
2024/06/04,15:30,0.490,0.752,0.475,0.921,0.673,0.311,0.541,0.503,�k�k��,7.3,��
2024/06/04,15:40,0.488,0.750,0.477,0.921,0.674,0.310,0.539,0.504,�k,8.3,��
2024/06/04,15:50,0.489,0.750,0.476,0.921,0.674,0.310,0.539,0.503,�k�k��,7.6,��
2024/06/04,16:00,0.490,0.750,0.473,0.923,0.674,0.311,0.540,0.503,�k,8.3,��
2024/06/04,16:10,0.487,0.751,0.474,0.922,0.674,0.310,0.541,0.504,�k,9.8,��
2024/06/04,16:20,0.489,0.750,0.476,0.921,0.675,0.310,0.541,0.503,�k,8.8,��
2024/06/04,16:30,0.488,0.751,0.476,0.923,0.673,0.309,0.540,0.503,�k,8.4,��
2024/06/04,16:40,0.488,0.750,0.474,0.922,0.674,0.310,0.540,0.504,�k,9.8,��
2024/06/04,16:50,0.489,0.751,0.477,0.922,0.673,0.309,0.539,0.504,�k,8.0,��
2024/06/04,17:00,0.488,0.750,0.474,0.922,0.675,0.309,0.540,0.504,�k,8.2,��
2024/06/04,17:10,0.488,0.751,0.475,0.921,0.675,0.311,0.540,0.503,�k,8.9,��
2024/06/04,17:20,0.487,0.752,0.475,0.922,0.673,0.309,0.540,0.504,�k,7.5,��
2024/06/04,17:30,0.489,0.753,0.473,0.923,0.673,0.308,0.540,0.503,�k,5.7,��
2024/06/04,17:40,0.487,0.753,0.475,0.925,0.671,0.310,0.540,0.504,�k,6.6,��
2024/06/04,17:50,0.487,0.753,0.475,0.923,0.673,0.310,0.540,0.504,�k,6.4,��
2024/06/04,18:00,0.488,0.754,0.476,0.923,0.672,0.310,0.541,0.504,�k,5.4,��
2024/06/04,18:10,0.488,0.754,0.474,0.924,0.673,0.309,0.539,0.504,�k�k��,5.9,��
2024/06/04,18:20,0.487,0.755,0.475,0.927,0.674,0.308,0.540,0.503,�k,6.9,��
2024/06/04,18:30,0.488,0.756,0.473,0.927,0.676,0.311,0.539,0.503,�k,6.7,��
2024/06/04,18:40,0.488,0.754,0.473,0.925,0.675,0.311,0.540,0.504,�k,6.5,��
2024/06/04,18:50,0.490,0.754,0.475,0.924,0.674,0.311,0.539,0.505,�k,6.5,��
2024/06/04,19:00,0.490,0.754,0.474,0.926,0.674,0.310,0.540,0.505,�k,7.7,��
2024/06/04,19:10,0.490,0.756,0.475,0.927,0.674,0.311,0.539,0.504,�k,7.9,��
2024/06/04,19:20,0.490,0.754,0.475,0.927,0.677,0.311,0.539,0.506,�k�k��,7.9,��
2024/06/04,19:30,0.488,0.754,0.476,0.924,0.676,0.312,0.539,0.505,�k,6.2,��
2024/06/04,19:40,0.490,0.755,0.478,0.926,0.676,0.313,0.540,0.504,�k,7.0,��
2024/06/04,19:50,0.491,0.753,0.477,0.923,0.676,0.311,0.539,0.505,�k,5.7,��
2024/06/04,20:00,0.492,0.754,0.477,0.926,0.675,0.312,0.539,0.505,�k�k��,4.6,��
2024/06/04,20:10,0.490,0.755,0.477,0.926,0.676,0.311,0.539,0.505,�k�k��,4.1,��
2024/06/04,20:20,0.490,0.754,0.478,0.927,0.675,0.310,0.541,0.505,�k,5.9,��
2024/06/04,20:30,0.490,0.756,0.478,0.925,0.678,0.310,0.538,0.505,�k,5.1,��
2024/06/04,20:40,0.491,0.753,0.478,0.927,0.675,0.311,0.539,0.504,�k�k��,5.4,��
2024/06/04,20:50,0.491,0.755,0.477,0.924,0.675,0.311,0.541,0.505,�k�k��,6.4,��
2024/06/04,21:00,0.491,0.755,0.477,0.925,0.677,0.311,0.539,0.504,�k�k��,5.7,��
2024/06/04,21:10,0.493,0.754,0.478,0.925,0.675,0.311,0.539,0.505,�k,5.5,��
2024/06/04,21:20,0.491,0.755,0.477,0.926,0.675,0.309,0.539,0.505,�k,6.0,��
2024/06/04,21:30,0.491,0.754,0.477,0.925,0.674,0.310,0.539,0.506,�k,5.9,��
2024/06/04,21:40,0.490,0.753,0.477,0.925,0.675,0.310,0.538,0.503,�k�k��,4.6,��
2024/06/04,21:50,0.491,0.754,0.477,0.925,0.675,0.311,0.539,0.504,�k,5.2,��
2024/06/04,22:00,0.490,0.755,0.477,0.925,0.676,0.310,0.539,0.504,�k,6.2,��
2024/06/04,22:10,0.491,0.753,0.478,0.925,0.676,0.312,0.538,0.504,�k,6.7,��
2024/06/04,22:20,0.492,0.754,0.477,0.926,0.674,0.311,0.539,0.504,�k,5.6,��
2024/06/04,22:30,0.491,0.754,0.477,0.925,0.675,0.310,0.539,0.502,�k,5.6,��
2024/06/04,22:40,0.492,0.753,0.477,0.925,0.675,0.310,0.540,0.503,�k,6.1,��
2024/06/04,22:50,0.490,0.754,0.478,0.926,0.675,0.311,0.540,0.504,�k�k��,5.2,��
2024/06/04,23:00,0.492,0.753,0.478,0.925,0.673,0.311,0.539,0.504,�k�k��,4.9,��
2024/06/04,23:10,0.491,0.754,0.477,0.926,0.675,0.310,0.540,0.504,�k�k��,5.5,�L
2024/06/04,23:20,0.490,0.756,0.477,0.927,0.675,0.310,0.540,0.505,�k�k��,7.2,��
2024/06/04,23:30,0.491,0.753,0.478,0.926,0.676,0.311,0.540,0.505,�k�k��,6.9,��
2024/06/04,23:40,0.489,0.756,0.477,0.924,0.676,0.311,0.540,0.504,�k,6.8,��
2024/06/04,23:50,0.491,0.753,0.478,0.926,0.675,0.310,0.538,0.503,�k,8.3,��
